Flag for U.S.A. Weather past 2 weeks in Portland, Oregon, U.S.A.

Now
65 °F

Broken clouds.


Feels Like: 65 °F
Forecast: 53 / 68 °F
Wind: 3 mph from North

Location: Portland International Airport

Current Time: Sep 3, 2015 at 4:37:34 PM

Latest Report: Sep 3, 2015 at 3:53 PM


Visibility: 10 mi

Pressure: 30.00 "Hg

Humidity: 52%

Dew point: 47 °F

Location of PortlandLocation

Historic Weather in Portland — Graph

°F

Portland temperature yesterday

Maximum temperature yesterday: 73 °F (at 4:53 PM)
Minimum temperature yesterday: 58 °F (at 12:53 AM)
Average temperature yesterday: 63 °F

Past Weeks' High & Low Weather Summary

 TemperatureHumidityPressure
High96 °F (Aug 19, 4:53 PM)97% (Sep 2, 12:53 AM)30.09 "Hg (Sep 2, 12:53 AM)
Low50 °F (Sep 3, 6:53 AM)16% (Aug 25, 4:53 PM)29.54 "Hg (Aug 29, 2:53 AM)
Average69 °F59%29.95 "Hg
* Reported Aug 19 2:53 PM — Sep 3 2:53 PM, Portland, Weather by CustomWeather, © 2015

Note: Actual official high and low records may vary slightly from our data, if they occured in-between our weather recording intervals... More about our weather records

Advertising

Portland weather history for previous 24 hours

 ConditionsComfort  
Time TempWeatherWind HumidityBarometerVisibility
2:53 PM
Thu, Sep 3
63 °FBroken clouds.9 mph56%30.01 "Hg10 mi
1:53 PM65 °FLight rain. Partly sunny.No wind49%30.00 "Hg10 mi
12:53 PM67 °FPassing clouds.7 mph47%30.01 "Hg10 mi
11:53 AM64 °FPassing clouds.5 mph58%30.03 "Hg10 mi
10:53 AM62 °FScattered clouds.6 mph65%30.04 "Hg10 mi
9:53 AM60 °FPassing clouds.5 mph72%30.05 "Hg10 mi
8:53 AM57 °FPassing clouds.No wind81%30.05 "Hg10 mi
7:53 AM53 °FScattered clouds.3 mph89%30.05 "Hg10 mi
6:53 AM50 °FPassing clouds.3 mph93%30.03 "Hg10 mi
5:53 AM52 °FPassing clouds.No wind89%30.02 "Hg10 mi
4:53 AM53 °FPassing clouds.No wind86%30.02 "Hg10 mi
3:53 AM54 °FPassing clouds.No wind86%30.01 "Hg10 mi
2:53 AM55 °FPassing clouds.No wind80%30.00 "Hg10 mi
1:53 AM56 °FPassing clouds.5 mph81%29.99 "Hg10 mi
12:53 AM59 °FPassing clouds.3 mph69%29.98 "Hg10 mi
11:53 PM
Wed, Sep 2
59 °FPassing clouds.3 mph69%29.98 "Hg10 mi
10:53 PM61 °FMostly cloudy.5 mph65%29.98 "Hg10 mi
9:53 PM62 °FPartly cloudy.3 mph62%29.97 "Hg10 mi
8:53 PM62 °FPassing clouds.12 mph62%29.96 "Hg10 mi
7:53 PM64 °FLight rain. Partly sunny.8 mph56%29.93 "Hg10 mi
6:53 PM69 °FPartly sunny.7 mph45%29.92 "Hg10 mi
5:53 PM68 °FPartly sunny.10 mph53%29.91 "Hg10 mi
4:53 PM73 °FScattered clouds.8 mph36%29.90 "Hg10 mi
Weather by CustomWeather, © 2015

See weather overviewHow to use our weather pages